1495782000.9,5195,14.13,73816.8,13.67,-28.79,-30.51,0,*75
1495782002.12,5196,14.13,73818.8,13.67,-30.51,-32.39,0,*79
1495782003.32,5197,14.13,73816.8,13.67,-30.83,-32.57,0,*7F
1495782004.58,5198,14.13,73818.0,13.65,-29.13,-30.83,0,*78
1495782005.87,5199,14.13,73818.5,13.65,-28.25,-30.17,0,*70
1495782007.12,5200,14.13,73816.5,13.65,-30.23,-31.95,0,*77
1495782008.35,5201,14.13,73816.8,13.67,-28.75,-30.45,0,*72
1495782009.6,5202,14.13,73818.5,13.65,-27.67,-29.29,0,*7D
1495782010.84,5203,14.13,73814.0,13.67,-27.35,-28.79,0,*7D
1495782012.06,5204,14.13,73818.0,13.69,-27.55,-29.07,0,*7A
1495782013.29,5205,14.13,73814.5,13.69,-27.13,-28.69,0,*70
1495782014.53,5206,14.13,73816.8,13.71,-27.19,-28.91,0,*77
1495782015.75,5207,14.13,73816.3,13.71,-27.45,-29.07,0,*71
1495782017.0,5208,14.13,73818.5,13.73,-27.99,-29.61,0,*7D
1495782018.25,5209,14.13,73814.0,13.75,-27.35,-28.91,0,*72
1495782019.46,5210,14.13,73822.0,13.75,-27.93,-29.57,0,*7D
1495782020.68,5211,14.13,73816.5,13.75,-27.39,-28.97,0,*71
1495782021.9,5212,14.13,73816.0,13.79,-27.77,-29.39,0,*71
1495782023.13,5213,14.13,73818.5,13.77,-27.77,-29.57,0,*76
1495782024.36,5214,14.13,73818.3,13.77,-27.89,-29.45,0,*73
1495782025.58,5215,14.13,73818.5,13.79,-27.19,-28.85,0,*78
1495782026.82,5216,14.13,73816.5,13.79,-27.19,-28.75,0,*74
1495782028.06,5217,14.13,73818.0,13.81,-27.13,-28.75,0,*78
1495782029.33,5218,14.13,73818.0,13.85,-27.45,-29.01,0,*72
1495782030.58,5219,14.13,73816.3,13.85,-27.99,-29.95,0,*7F
1495782031.81,5220,14.13,73816.0,13.81,-28.85,-30.45,0,*76
1495782033.07,5221,14.13,73816.5,13.85,-27.93,-29.51,0,*76
1495782034.3,5222,14.13,73816.0,13.85,-27.93,-29.57,0,*73
1495782035.52,5223,14.13,73818.0,13.87,-26.77,-28.37,0,*7C
1495782036.75,5224,14.13,73820.5,13.87,-27.89,-29.51,0,*7A
1495782037.99,5225,14.13,73820.0,13.87,-27.39,-28.91,0,*7D
1495782039.2,5226,14.13,73816.8,13.89,-26.87,-28.31,0,*7E
1495782040.47,5227,14.13,73818.3,13.91,-27.23,-28.91,0,*73
1495782041.68,5228,14.13,73818.0,13.93,-28.15,-29.67,0,*7C
1495782042.91,5229,14.13,73820.5,13.93,-27.07,-28.63,0,*74
1495782044.16,5230,14.13,73816.8,13.93,-27.61,-29.17,0,*7E
1495782045.42,5231,14.13,73816.3,13.91,-27.71,-29.35,0,*7C
1495782046.67,5232,14.13,73818.5,13.93,-27.61,-29.13,0,*78
1495782047.89,5233,14.13,73818.0,13.97,-27.13,-28.75,0,*79
1495782049.11,5234,14.13,73812.5,13.97,-27.29,-28.91,0,*7D
1495782050.4,5235,14.13,73816.3,13.95,-28.05,-29.51,0,*72
1495782051.62,5236,14.13,73818.5,13.97,-27.77,-29.35,0,*7B
1495782052.85,5237,14.13,73822.0,13.97,-27.29,-28.79,0,*78
1495782054.08,5238,14.13,73818.0,13.97,-27.07,-28.63,0,*70
1495782055.27,5239,14.13,73818.5,14.01,-27.51,-29.07,0,*79
1495782056.52,5240,14.13,73816.5,14.01,-27.23,-28.91,0,*7C
1495782057.77,5241,14.13,73816.3,14.01,-26.71,-28.25,0,*74
1495782058.97,5242,14.13,73822.5,14.01,-26.39,-27.89,0,*72
1495782060.19,5243,14.13,73818.8,14.05,-26.29,-27.89,0,*76
1495782061.39,5244,14.13,73816.3,14.05,-26.45,-27.93,0,*70
1495782062.66,5245,14.13,73816.0,14.11,-26.33,-27.83,0,*74
1495782063.91,5246,14.13,73818.8,14.11,-26.33,-27.89,0,*7D
1495782065.16,5247,14.13,73822.3,14.11,-27.03,-28.59,0,*7C
1495782066.43,5248,14.13,73818.8,14.15,-26.77,-28.47,0,*7A
1495782067.68,5249,14.13,73820.8,14.15,-27.13,-28.63,0,*7E
1495782068.9,5250,14.13,73816.3,14.17,-26.55,-28.15,0,*76
1495782070.1,5251,14.13,73820.8,14.17,-26.39,-27.93,0,*7C
1495782071.35,5252,14.13,73818.8,14.19,-25.87,-27.39,0,*77
1495782072.6,5253,14.13,73816.5,14.19,-26.77,-28.85,0,*72
1495782073.84,5254,14.13,73816.8,14.19,-27.93,-29.73,0,*76
1495782075.08,5255,14.13,73816.3,14.19,-26.93,-28.53,0,*75
1495782076.29,5256,14.13,73820.5,14.23,-26.61,-28.15,0,*70
1495782077.48,5257,14.13,73818.3,14.23,-26.87,-28.53,0,*7B
1495782078.7,5258,14.13,73820.5,14.23,-28.15,-29.73,0,*72
1495782079.95,5259,14.13,73820.0,14.25,-27.13,-28.75,0,*7B
1495782081.22,5260,14.13,73818.5,14.25,-25.81,-27.45,0,*74
1495782082.42,5261,14.13,73820.3,14.27,-26.07,-27.77,0,*7B
1495782083.62,5262,14.13,73822.3,14.27,-26.07,-27.55,0,*78
1495782084.87,5263,14.13,73820.5,14.27,-26.97,-28.75,0,*7D
1495782086.1,5264,14.13,73816.0,14.31,-26.33,-27.89,0,*7F
1495782087.36,5265,14.13,73822.5,14.33,-26.45,-28.05,0,*76
1495782088.58,5266,14.13,73818.0,14.35,-28.37,-30.05,0,*71
1495782089.81,5267,14.13,73820.3,14.35,-28.21,-29.83,0,*71
1495782091.09,5268,14.13,73816.0,14.33,-29.17,-30.95,0,*73
1495782092.32,5269,14.13,73822.8,14.31,-28.21,-29.95,0,*7C
1495782093.54,5270,14.13,73820.0,14.33,-29.95,-31.79,0,*73
1495782094.77,5271,14.13,73820.8,14.31,-28.59,-30.27,0,*7B
1495782096.03,5272,14.13,73818.3,14.27,-28.43,-30.17,0,*77
1495782097.28,5273,14.13,73818.3,14.31,-29.89,-31.85,0,*7C
1495782098.51,5274,14.13,73816.0,14.27,-30.89,-32.69,0,*75
1495782099.76,5275,14.13,73818.8,14.25,-28.31,-30.01,0,*70
1495782100.97,5276,14.13,73816.5,14.27,-27.93,-29.45,0,*7E
1495782102.24,5277,14.13,73818.3,14.25,-27.45,-29.17,0,*71
1495782103.47,5278,14.13,73818.8,14.25,-27.13,-28.85,0,*77
1495782104.69,5279,14.13,73818.8,14.27,-28.09,-29.61,0,*7B
1495782105.92,5280,14.13,73816.5,14.27,-28.47,-30.33,0,*78
1495782107.15,5281,14.13,73820.8,14.27,-29.79,-31.39,0,*7E
1495782108.41,5282,14.13,73816.3,14.27,-29.35,-31.23,0,*7E
1495782109.64,5283,14.13,73816.0,14.25,-29.95,-31.79,0,*78
1495782110.89,5284,14.13,73818.8,14.25,-30.89,-32.69,0,*78
1495782112.14,5285,14.13,73818.5,14.23,-29.73,-31.61,0,*79
1495782113.37,5286,14.13,73816.8,14.23,-29.07,-31.11,0,*7E
1495782114.62,5287,14.13,73816.3,14.23,-27.83,-29.51,0,*70
1495782115.88,5288,14.13,73818.3,14.21,-28.05,-29.57,0,*7A
1495782117.11,5289,14.13,73816.5,14.21,-27.07,-28.85,0,*78
1495782118.34,5290,14.13,73818.5,14.23,-27.67,-29.39,0,*72
1495782119.6,5291,14.13,73816.8,14.25,-29.01,-30.83,0,*72
1495782120.85,5292,14.13,73818.5,14.25,-30.55,-32.51,0,*75
1495782122.06,5293,14.13,73820.3,14.23,-29.67,-31.45,0,*7D
1495782123.31,5294,14.13,73816.8,14.21,-30.33,-32.29,0,*78
1495782124.55,5295,14.13,73818.8,14.19,-30.61,-32.39,0,*74
1495782125.77,5296,14.13,73820.8,14.17,-30.33,-32.19,0,*7C
1495782127.0,5297,14.13,73818.0,14.17,-28.25,-29.95,0,*7D
1495782128.22,5298,14.13,73816.8,14.17,-28.31,-30.01,0,*72
1495782129.42,5299,14.13,73816.5,14.17,-27.77,-29.45,0,*76
1495782130.67,5300,14.13,73816.5,14.17,-27.39,-29.01,0,*7D
1495782131.93,5301,14.13,73818.8,14.19,-26.71,-28.25,0,*78
1495782133.16,5302,14.13,73820.0,14.23,-26.87,-28.63,0,*79
1495782134.37,5303,14.13,73816.5,14.23,-26.49,-28.15,0,*7B
1495782135.62,5304,14.13,73820.8,14.23,-25.97,-27.61,0,*70
1495782136.82,5305,14.13,73816.5,14.27,-26.07,-27.71,0,*7E
1495782138.03,5306,14.13,73820.0,14.27,-26.45,-28.15,0,*76
1495782139.26,5307,14.13,73818.3,14.27,-27.29,-29.01,0,*78
1495782140.46,5308,14.13,73818.5,14.31,-27.89,-29.57,0,*79
1495782141.69,5309,14.13,73818.8,14.31,-26.81,-28.37,0,*76
1495782142.97,5310,14.13,73816.5,14.33,-26.33,-27.99,0,*7E
1495782144.18,5311,14.13,73818.5,14.35,-26.49,-28.15,0,*7F
1495782145.46,5312,14.13,73822.5,14.37,-26.77,-28.43,0,*70
1495782146.74,5313,14.13,73816.8,14.37,-26.29,-27.99,0,*72
1495782147.93,5314,14.13,73816.5,14.39,-26.23,-27.93,0,*7B
1495782149.18,5315,14.13,73818.3,14.41,-26.87,-28.59,0,*72
1495782150.45,5316,14.13,73818.0,14.41,-27.23,-28.91,0,*7A
1495782151.71,5317,14.13,73816.5,14.41,-27.19,-28.79,0,*74
1495782152.97,5318,14.13,73816.3,14.43,-26.33,-27.99,0,*71
1495782154.22,5319,14.13,73816.3,14.45,-26.13,-27.67,0,*75
1495782155.46,5320,14.13,73816.3,14.45,-26.49,-28.09,0,*77
1495782156.74,5321,14.13,73818.3,14.49,-26.55,-28.25,0,*79
1495782157.95,5322,14.13,73816.8,14.47,-25.91,-27.61,0,*70
1495782159.17,5323,14.13,73816.3,14.53,-26.03,-27.55,0,*7B
1495782160.39,5324,14.13,73818.5,14.53,-27.13,-28.75,0,*71
1495782161.61,5325,14.13,73818.8,14.55,-27.67,-29.23,0,*77
1495782162.85,5326,14.13,73816.8,14.55,-28.43,-30.45,0,*75
1495782164.1,5327,14.13,73818.5,14.55,-30.61,-32.69,0,*71
1495782165.32,5328,14.13,73820.3,14.49,-30.11,-31.79,0,*76
1495782166.56,5329,14.13,73818.0,14.47,-32.19,-34.35,0,*7E
1495782167.79,5330,14.13,73818.3,14.43,-30.83,-32.75,0,*71
1495782169.04,5331,14.13,73816.5,14.41,-31.01,-32.63,0,*7E
1495782170.26,5332,14.13,73814.8,14.39,-31.17,-32.97,0,*7E
1495782171.48,5333,14.13,73822.0,14.39,-31.73,-33.67,0,*73
1495782172.74,5334,14.13,73818.5,14.35,-31.51,-33.43,0,*7E
1495782173.98,5335,14.13,73816.8,14.35,-33.27,-35.23,0,*7C
1495782175.19,5336,14.13,73816.3,14.27,-31.45,-33.37,0,*79
1495782176.41,5337,14.13,73822.0,14.27,-31.05,-32.97,0,*77
1495782177.66,5338,14.13,73816.3,14.25,-31.11,-33.03,0,*73
1495782178.91,5339,14.13,73818.8,14.21,-32.39,-34.35,0,*7D
1495782180.19,5340,14.13,73816.3,14.21,-34.53,-36.79,0,*73
1495782181.43,5341,14.13,73818.5,14.15,-35.41,-37.57,0,*7A
1495782182.65,5342,14.13,73818.3,14.09,-36.01,-38.11,0,*7E
1495782183.87,5343,14.13,73816.8,14.09,-33.31,-35.17,0,*72
1495782185.12,5344,14.13,73818.3,14.03,-31.45,-33.27,0,*7B
1495782186.37,5345,14.13,73816.3,14.01,-31.57,-33.61,0,*79
1495782187.58,5346,14.13,73816.3,13.99,-32.57,-34.41,0,*7A
1495782188.81,5347,14.13,73816.3,13.99,-31.45,-33.15,0,*7D
1495782190.1,5348,14.13,73820.0,13.99,-28.91,-30.61,0,*73
1495782191.35,5349,14.13,73818.0,13.99,-29.95,-31.73,0,*75
1495782192.63,5350,14.13,73816.8,13.99,-31.11,-32.63,0,*7A
1495782193.89,5351,14.13,73816.3,13.99,-29.01,-30.83,0,*7F
1495782195.15,5352,14.13,73816.5,13.99,-28.91,-30.67,0,*7E
1495782196.43,5353,14.13,73816.3,13.99,-28.25,-29.89,0,*78
1495782197.66,5354,14.13,73818.8,14.01,-27.23,-28.85,0,*7D
1495782198.88,5355,14.13,73818.5,14.01,-27.19,-28.85,0,*75
1495782200.07,5356,14.13,73818.8,14.05,-27.89,-29.61,0,*70
1495782201.34,5357,14.13,73818.5,14.03,-30.55,-32.45,0,*7C
1495782202.57,5358,14.13,73816.8,14.03,-30.55,-32.35,0,*74
1495782203.85,5359,14.13,73816.3,14.03,-29.17,-30.89,0,*7E
1495782205.05,5360,14.13,73816.8,14.05,-28.15,-29.83,0,*73
1495782206.29,5361,14.13,73816.8,14.03,-27.77,-29.39,0,*7E
1495782207.52,5362,14.13,73818.8,14.05,-30.27,-32.07,0,*7F
1495782208.77,5363,14.13,73818.8,14.03,-28.97,-30.61,0,*78
1495782210.03,5364,14.13,73818.8,14.05,-29.17,-30.89,0,*76
1495782211.27,5365,14.13,73816.0,14.05,-28.79,-30.55,0,*7F
1495782212.55,5366,14.13,73816.3,14.03,-29.39,-31.57,0,*7C
1495782213.77,5367,14.13,73816.5,14.05,-30.11,-31.95,0,*77
1495782215.0,5368,14.13,73816.8,14.05,-29.51,-31.33,0,*78
1495782216.27,5369,14.13,73818.3,14.03,-28.47,-30.17,0,*7E
1495782217.49,5370,14.13,73812.5,14.05,-28.59,-30.11,0,*79
1495782218.72,5371,14.13,73818.8,14.05,-29.29,-31.05,0,*7A
1495782219.93,5372,14.13,73818.8,14.03,-30.33,-32.01,0,*7B
1495782221.16,5373,14.13,73818.3,14.05,-28.97,-30.73,0,*7C
1495782222.43,5374,14.13,73816.8,14.03,-29.17,-30.95,0,*7C
1495782223.67,5375,14.13,73818.5,14.03,-27.35,-28.97,0,*78
1495782224.87,5376,14.13,73818.3,14.05,-27.29,-28.97,0,*70
1495782226.09,5377,14.13,73816.3,14.09,-26.81,-28.37,0,*74
1495782227.36,5378,14.13,73818.3,14.11,-27.35,-28.91,0,*70
1495782228.64,5379,14.13,73818.3,14.15,-27.61,-29.35,0,*7B
1495782229.86,5380,14.13,73816.0,14.15,-27.93,-29.57,0,*74
1495782231.08,5381,14.13,73818.5,14.15,-27.13,-28.69,0,*71
1495782232.32,5382,14.13,73816.5,14.15,-27.19,-28.69,0,*78
1495782233.57,5383,14.13,73816.5,14.17,-26.97,-28.47,0,*70
1495782234.79,5384,14.13,73818.5,14.19,-27.07,-28.69,0,*7D
1495782236.05,5385,14.13,73812.5,14.19,-27.35,-29.13,0,*71
1495782237.3,5386,14.13,73816.8,14.23,-28.63,-30.39,0,*77
1495782238.5,5387,14.13,73818.3,14.23,-28.31,-29.83,0,*78
1495782239.75,5388,14.13,73818.8,14.21,-28.05,-29.61,0,*7E
1495782240.99,5389,14.13,73814.8,14.23,-27.19,-28.79,0,*77
1495782242.21,5390,14.13,73818.8,14.23,-27.45,-29.07,0,*7E
1495782243.49,5391,14.13,73816.5,14.25,-28.59,-30.17,0,*72
1495782244.74,5392,14.13,73818.0,14.25,-28.31,-30.01,0,*78
1495782245.97,5393,14.13,73816.8,14.27,-27.77,-29.35,0,*79
1495782247.23,5394,14.13,73816.3,14.25,-27.71,-29.35,0,*7A
1495782248.45,5395,14.13,73818.5,14.27,-27.83,-29.45,0,*73
1495782249.67,5396,14.13,73818.0,14.31,-26.87,-28.43,0,*75
1495782250.87,5397,14.13,73816.8,14.31,-26.39,-27.93,0,*73
1495782252.15,5398,14.13,73818.5,14.33,-26.33,-27.99,0,*7E
1495782253.41,5399,14.13,73818.0,14.33,-27.03,-28.63,0,*77
1495782254.66,5400,14.13,73816.5,14.33,-27.99,-29.67,0,*76
1495782255.88,5401,14.13,73818.5,14.35,-30.23,-32.19,0,*75
1495782257.15,5402,14.13,73816.0,14.33,-30.05,-31.85,0,*72
1495782258.41,5403,14.13,73816.8,14.33,-29.35,-31.17,0,*73
1495782259.66,5404,14.13,73818.0,14.31,-29.73,-31.57,0,*70
1495782260.89,5405,14.13,73816.8,14.33,-29.95,-31.79,0,*77
1495782262.13,5406,14.13,73816.0,14.27,-29.35,-30.67,0,*75
1495782263.35,5407,14.13,73816.3,14.27,-29.79,-31.73,0,*78
1495782264.61,5408,14.13,73816.3,14.27,-29.17,-30.89,0,*7B
1495782265.84,5409,14.13,73814.8,14.27,-28.63,-30.23,0,*78
1495782267.07,5410,14.13,73816.0,14.27,-28.25,-29.79,0,*75
1495782268.29,5411,14.13,73812.3,14.31,-28.09,-29.79,0,*7D
1495782269.54,5412,14.13,73818.8,14.33,-28.15,-29.89,0,*7E
1495782270.79,5413,14.13,73812.5,14.33,-27.71,-29.51,0,*77
1495782272.02,5414,14.13,73812.3,14.31,-28.21,-30.11,0,*74
1495782273.26,5415,14.13,73812.3,14.33,-28.47,-30.11,0,*77
1495782274.49,5416,14.13,73816.5,14.31,-28.05,-29.79,0,*76
1495782275.74,5417,14.13,73814.3,14.31,-30.01,-31.91,0,*75
1495782276.93,5418,14.13,73812.8,14.31,-30.45,-32.23,0,*70
1495782278.19,5419,14.13,73814.5,14.33,-28.53,-30.39,0,*74
1495782279.39,5420,14.13,73814.5,14.31,-28.37,-30.11,0,*74
1495782280.61,5421,14.13,73816.3,14.33,-30.11,-32.01,0,*79
1495782281.81,5422,14.13,73816.8,14.31,-30.67,-32.57,0,*7A
1495782283.09,5423,14.13,73818.0,14.25,-30.17,-32.07,0,*7C
1495782284.31,5424,14.13,73814.5,14.27,-29.29,-31.05,0,*7D
1495782285.51,5425,14.13,73814.5,14.27,-28.15,-29.95,0,*72
1495782286.73,5426,14.13,73812.8,14.27,-29.45,-31.45,0,*71
1495782287.95,5427,14.13,73818.3,14.27,-29.83,-31.73,0,*7F
1495782289.22,5428,14.13,73814.5,14.27,-29.01,-30.73,0,*7B
1495782290.47,5429,14.13,73818.0,14.25,-29.83,-31.61,0,*70
1495782291.75,5430,14.13,73816.0,14.25,-28.59,-30.39,0,*72
1495782292.99,5431,14.13,73816.8,14.25,-28.47,-30.23,0,*77
1495782294.24,5432,14.13,73814.0,14.27,-28.47,-30.51,0,*73
1495782295.49,5433,14.13,73814.5,14.27,-27.83,-29.51,0,*7D
1495782296.72,5434,14.13,73816.5,14.27,-28.43,-30.33,0,*75
1495782298.0,5435,14.13,73812.8,14.25,-31.95,-33.89,0,*77
1495782299.27,5436,14.13,73816.8,14.25,-30.73,-32.45,0,*7C
1495782300.51,5437,14.13,73812.8,14.23,-29.23,-30.89,0,*74
1495782301.73,5438,14.13,73818.5,14.23,-28.47,-30.23,0,*78
1495782302.92,5439,14.13,73818.3,14.23,-27.51,-29.23,0,*79
1495782304.17,5440,14.13,73816.5,14.27,-27.61,-29.29,0,*7A
1495782305.42,5441,14.13,73818.0,14.25,-27.93,-29.51,0,*7B
1495782306.67,5442,14.19,73822.0,14.27,-27.83,-29.51,0,*7B
1495782307.93,5443,14.13,73818.5,14.27,-28.79,-30.39,0,*76
1495782309.16,5444,14.13,73814.3,14.27,-28.75,-30.67,0,*76
1495782310.41,5445,14.13,73818.3,14.31,-30.01,-31.85,0,*77
1495782311.61,5446,14.13,73816.0,14.31,-29.23,-31.01,0,*70
1495782312.81,5447,14.13,73818.5,14.27,-27.77,-29.45,0,*70
1495782314.04,5448,14.13,73818.0,14.31,-27.23,-28.97,0,*77
1495782315.29,5449,14.13,73814.5,14.33,-29.17,-31.01,0,*7A
1495782316.54,5450,14.13,73816.8,14.31,-31.23,-33.09,0,*74
1495782317.8,5451,14.13,73816.3,14.31,-30.77,-32.75,0,*7F
1495782319.05,5452,14.13,73816.3,14.25,-31.05,-32.85,0,*72
1495782320.32,5453,14.13,73812.5,14.27,-29.51,-30.89,0,*77
1495782321.54,5454,14.19,73816.3,14.25,-31.05,-33.03,0,*7B
1495782322.74,5455,14.13,73812.3,14.23,-31.17,-32.91,0,*75
1495782323.99,5456,14.13,73812.5,14.21,-30.77,-32.57,0,*79
1495782325.23,5457,14.13,73816.0,14.21,-30.45,-32.29,0,*70
1495782326.46,5458,14.13,73816.3,14.17,-29.67,-31.61,0,*7D
1495782327.69,5459,14.13,73814.0,14.19,-28.53,-30.33,0,*72
1495782328.93,5460,14.13,73816.3,14.19,-28.43,-30.11,0,*79
1495782330.2,5461,14.19,73816.5,14.19,-28.21,-30.05,0,*79
1495782331.46,5462,14.19,73818.5,14.21,-28.75,-30.67,0,*74
1495782332.75,5463,14.13,73816.3,14.21,-29.39,-31.11,0,*7C
1495782334.02,5464,14.13,73818.8,14.21,-28.59,-30.05,0,*78
1495782335.27,5465,14.13,73818.0,14.21,-27.83,-29.45,0,*7D
1495782336.5,5466,14.19,73818.5,14.23,-27.77,-29.51,0,*72
1495782337.73,5467,14.13,73818.8,14.23,-28.85,-30.55,0,*7D
1495782338.96,5468,14.13,73816.0,14.27,-28.59,-30.33,0,*77
1495782340.19,5469,14.19,73818.3,14.25,-27.93,-29.45,0,*74
1495782341.42,5470,14.13,73816.0,14.25,-29.45,-31.29,0,*7A
1495782342.7,5471,14.13,73816.5,14.25,-30.89,-32.85,0,*76
1495782343.95,5472,14.13,73818.0,14.25,-28.43,-29.83,0,*76
1495782345.23,5473,14.19,73820.8,14.25,-27.45,-29.01,0,*74
1495782346.45,5474,14.13,73816.3,14.27,-26.45,-28.09,0,*79
1495782347.66,5475,14.13,73816.5,14.31,-27.71,-29.57,0,*73
1495782348.89,5476,14.13,73816.8,14.31,-29.61,-31.51,0,*70
1495782350.11,5477,14.13,73814.0,14.31,-28.75,-30.45,0,*71
1495782351.34,5478,14.13,73814.3,14.27,-30.01,-31.79,0,*7D
1495782352.56,5479,14.13,73812.3,14.27,-29.67,-31.57,0,*78
1495782353.81,5480,14.13,73816.3,14.25,-30.23,-32.07,0,*72
1495782355.06,5481,14.13,73816.5,14.25,-30.55,-32.51,0,*71
1495782356.26,5482,14.13,73816.5,14.23,-32.01,-33.95,0,*7E
1495782357.55,5483,14.13,73814.5,14.21,-30.95,-32.75,0,*7D
1495782358.81,5484,14.19,73816.3,14.21,-29.95,-31.91,0,*7B
1495782360.06,5485,14.13,73814.8,14.21,-30.11,-31.91,0,*7E
1495782361.28,5486,14.13,73814.3,14.19,-29.95,-32.01,0,*78
1495782362.52,5487,14.13,73816.8,14.19,-31.33,-33.31,0,*7E
1495782363.74,5488,14.13,73816.3,14.17,-29.73,-31.79,0,*7C
1495782364.98,5489,14.13,73814.5,14.17,-30.39,-32.29,0,*7D
1495782366.24,5490,14.13,73818.0,14.15,-30.39,-32.29,0,*77
1495782367.51,5491,14.13,73814.5,14.15,-30.05,-31.61,0,*76
1495782368.76,5492,14.13,73818.0,14.15,-27.67,-29.35,0,*7F
1495782370.03,5493,14.13,73814.5,14.15,-27.61,-29.17,0,*78
1495782371.25,5494,14.13,73816.0,14.17,-29.13,-31.01,0,*78
1495782372.5,5495,14.13,73814.3,14.19,-31.33,-33.31,0,*7D
1495782373.74,5496,14.13,73814.5,14.17,-30.39,-32.29,0,*73
1495782374.96,5497,14.19,73818.8,14.17,-29.45,-31.39,0,*73
1495782376.22,5498,14.13,73812.8,14.15,-28.85,-30.77,0,*78
1495782377.46,5499,14.13,73818.8,14.17,-30.39,-32.29,0,*7C
1495782378.66,5500,14.19,73816.8,14.17,-27.89,-29.61,0,*76
1495782379.86,5501,14.13,73814.0,14.17,-29.61,-31.45,0,*70
1495782381.11,5502,14.13,73814.3,14.17,-28.47,-30.01,0,*77
1495782382.35,5503,14.13,73818.0,14.17,-27.39,-29.01,0,*78
1495782383.59,5504,14.19,73818.3,14.19,-27.35,-28.97,0,*73
1495782384.83,5505,14.13,73814.5,14.19,-27.45,-28.97,0,*75
1495782386.07,5506,14.13,73818.8,14.19,-26.87,-28.43,0,*70
1495782387.27,5507,14.13,73814.8,14.23,-26.49,-28.15,0,*79
1495782388.5,5508,14.19,73816.5,14.27,-26.61,-28.25,0,*7B
1495782389.75,5509,14.13,73818.8,14.25,-28.47,-30.33,0,*7C
1495782391.0,5510,14.13,73816.3,14.27,-28.43,-30.01,0,*73
1495782392.22,5511,14.13,73816.3,14.31,-27.55,-29.13,0,*76
1495782393.47,5512,14.19,73816.3,14.35,-27.83,-29.51,0,*7C
1495782394.69,5513,14.13,73818.5,14.31,-27.35,-28.97,0,*7F
1495782395.94,5514,14.13,73812.8,14.33,-26.87,-28.63,0,*79
1495782397.15,5515,14.13,73812.5,14.35,-27.13,-28.75,0,*75
1495782398.42,5516,14.19,73818.0,14.37,-26.77,-28.31,0,*77
1495782399.66,5517,14.19,73816.0,14.37,-27.55,-29.13,0,*76
1495782400.85,5518,14.13,73814.5,14.39,-27.51,-29.07,0,*76
1495782402.12,5519,14.19,73816.8,14.41,-27.19,-28.91,0,*7A
1495782403.34,5520,14.19,73820.0,14.41,-26.39,-27.93,0,*7E
1495782404.56,5521,14.13,73816.0,14.41,-26.39,-27.93,0,*7F
1495782405.84,5522,14.13,73812.5,14.45,-26.97,-29.01,0,*79
1495782407.11,5523,14.19,73816.5,14.45,-27.83,-29.51,0,*79
1495782408.32,5524,14.13,73812.3,14.47,-28.09,-29.61,0,*72
1495782409.55,5525,14.19,73816.5,14.47,-27.77,-29.51,0,*76
1495782410.75,5526,14.13,73812.0,14.47,-27.07,-28.53,0,*71
1495782411.99,5527,14.13,73818.0,14.49,-26.87,-28.47,0,*72
1495782413.24,5528,14.19,73818.5,14.49,-26.77,-28.37,0,*75
1495782414.51,5529,14.19,73816.5,14.49,-26.71,-28.21,0,*75
1495782415.76,5530,14.13,73816.0,14.55,-26.71,-28.31,0,*71
1495782416.96,5531,14.13,73816.5,14.57,-27.93,-29.67,0,*7D
1495782418.19,5532,14.13,73818.0,14.57,-26.93,-28.53,0,*79
1495782419.42,5533,14.13,73812.0,14.57,-26.97,-28.53,0,*7C
1495782420.7,5534,14.13,73816.5,14.59,-27.61,-29.29,0,*71
1495782421.92,5535,14.19,73816.5,14.57,-31.67,-33.61,0,*78
1495782423.17,5536,14.13,73816.3,14.57,-31.95,-33.73,0,*75
1495782424.38,5537,14.13,73816.3,14.53,-29.61,-31.45,0,*75
1495782425.64,5538,14.13,73818.0,14.53,-28.91,-30.55,0,*74
1495782426.9,5539,14.13,73812.3,14.53,-28.75,-30.61,0,*78
1495782428.14,5540,14.13,73814.0,14.49,-27.77,-29.39,0,*75
1495782429.4,5541,14.19,73816.3,14.53,-28.05,-29.73,0,*7B
1495782430.64,5542,14.13,73816.3,14.53,-27.19,-28.75,0,*7D
1495782431.9,5543,14.19,73816.5,14.53,-26.81,-28.21,0,*7D
1495782433.15,5544,14.19,73818.3,14.55,-26.39,-27.99,0,*73
1495782434.38,5545,14.19,73816.0,14.59,-27.29,-28.97,0,*7F
1495782435.62,5546,14.13,73812.8,14.59,-28.47,-30.45,0,*7D
1495782436.85,5547,14.19,73818.5,14.57,-28.63,-30.23,0,*74
1495782438.11,5548,14.13,73814.0,14.59,-27.29,-28.91,0,*74
1495782439.36,5549,14.13,73814.5,14.59,-27.03,-28.63,0,*70
1495782440.64,5550,14.13,73816.8,14.59,-26.71,-28.21,0,*7A
1495782441.87,5551,14.13,73812.3,14.61,-26.03,-27.61,0,*7E
1495782443.12,5552,14.19,73818.8,14.63,-27.39,-29.79,0,*70
1495782444.36,5553,14.13,73814.5,14.63,-30.11,-31.91,0,*72
1495782445.64,5554,14.19,73818.5,14.63,-28.75,-30.51,0,*73
1495782446.86,5555,14.13,73814.3,14.61,-28.47,-30.33,0,*75
1495782448.08,5556,14.19,73818.0,14.61,-29.61,-31.57,0,*70
1495782449.36,5557,14.19,73818.3,14.63,-28.43,-30.17,0,*77
1495782450.61,5558,14.13,73814.8,14.61,-26.77,-28.47,0,*7F
1495782451.87,5559,14.13,73812.8,14.63,-26.49,-27.99,0,*7D
1495782453.12,5560,14.13,73814.8,14.63,-26.17,-27.67,0,*7D
1495782454.37,5561,14.19,73816.3,14.65,-26.13,-27.83,0,*74
1495782455.61,5562,14.13,73816.3,14.71,-25.87,-27.45,0,*76
1495782456.86,5563,14.13,73818.0,14.69,-25.75,-27.39,0,*78
1495782458.11,5564,14.19,73818.8,14.71,-26.61,-28.25,0,*72
1495782459.37,5565,14.19,73818.3,14.75,-26.65,-28.25,0,*73
1495782460.63,5566,14.13,73814.5,14.75,-26.33,-27.71,0,*7D
1495782461.89,5567,14.19,73816.5,14.79,-25.81,-27.45,0,*7D
1495782463.14,5568,14.13,73816.8,14.79,-26.45,-28.09,0,*7E
1495782464.36,5569,14.13,73816.0,14.79,-26.07,-27.77,0,*7F
1495782465.56,5570,14.13,73814.5,14.81,-27.89,-29.61,0,*7E
1495782466.79,5571,14.13,73818.8,14.81,-29.45,-31.23,0,*7E
1495782468.05,5572,14.19,73816.5,14.79,-30.39,-32.29,0,*70
1495782469.32,5573,14.19,73816.0,14.79,-30.73,-32.29,0,*7F
1495782470.59,5574,14.13,73816.3,14.75,-31.51,-33.49,0,*72
1495782471.84,5575,14.19,73818.3,14.69,-32.45,-34.31,0,*70
1495782473.08,5576,14.19,73818.3,14.67,-32.13,-34.01,0,*7D
1495782474.31,5577,14.13,73814.3,14.65,-34.35,-36.43,0,*78
1495782475.54,5578,14.13,73814.5,14.57,-34.53,-36.73,0,*75
1495782476.74,5579,14.19,73818.3,14.53,-33.95,-36.07,0,*7E
1495782477.99,5580,14.19,73816.5,14.47,-33.49,-35.07,0,*7F
1495782479.21,5581,14.13,73816.0,14.47,-33.03,-35.07,0,*70
1495782480.4,5582,14.13,73816.8,14.43,-31.79,-33.95,0,*75
1495782481.62,5583,14.13,73816.0,14.43,-31.67,-33.61,0,*70
1495782482.85,5584,14.13,73816.3,14.39,-31.95,-33.67,0,*71
1495782484.07,5585,14.13,73816.3,14.39,-31.91,-33.83,0,*7E
1495782485.32,5586,14.19,73816.5,14.37,-30.73,-32.13,0,*76
1495782486.59,5587,14.19,73818.3,14.37,-30.55,-32.29,0,*7A
1495782487.83,5588,14.19,73816.0,14.35,-30.05,-31.95,0,*76
1495782489.05,5589,14.13,73814.5,14.35,-28.69,-30.39,0,*73
1495782490.25,5590,14.19,73816.0,14.35,-28.15,-29.67,0,*73
1495782491.51,5591,14.13,73816.8,14.37,-27.77,-29.35,0,*7C
1495782492.7,5592,14.19,73816.5,14.39,-27.51,-28.97,0,*7C
1495782493.94,5593,14.13,73816.0,14.41,-27.55,-29.13,0,*7B
1495782495.18,5594,14.19,73816.5,14.43,-27.19,-28.75,0,*77
1495782496.45,5595,14.19,73816.0,14.45,-26.97,-28.47,0,*76
1495782497.7,5596,14.13,73814.0,14.45,-26.61,-27.99,0,*70
1495782498.98,5597,14.19,73820.3,14.45,-26.97,-28.63,0,*72
1495782500.19,5598,14.19,73816.0,14.47,-26.65,-28.31,0,*75
1495782501.4,5599,14.19,73816.0,14.49,-26.23,-27.77,0,*75
1495782502.65,5600,14.13,73816.0,14.53,-26.71,-28.43,0,*72
1495782503.91,5601,14.13,73814.5,14.55,-26.65,-27.99,0,*78